Weather in Shipitsyno

Russia / Omsk Oblast     56˚00′51″N   74˚33′57″E
temp.,
°C
wind,
m/s
gust,
m/s
humid.,
%
clouds,
%
prec.,
mm/h
press.,
hPa
HPBL,
m
16 january, sat
sat1600:00−18˚s71489100 0.1 1034422
03:00−17˚s81485100 0.0 1030386
06:00−16˚s71288100 0.1 1027358
09:00−16˚s61186100 0.0 1024339
12:00−15˚s6987100 0.0 1022333
15:00−13˚s5986100 0.0 1019345
18:00−12˚sse5989100 0.1 1015296
21:00−13˚sse51187100 0.0 1011263
17 january, sun
sun1700:00−14˚sse51087100 0.0 1008252
03:00−13˚sse4990100 0.0 1004256
06:00−11˚sw51192100 0.0 1003417
09:00−9˚wsw61392100 0.1 1003579
12:00−9˚wsw71392100 0.2 1005530
15:00−8˚sw6138890 0.1 1006486
18:00−9˚sw8178882 0.1 1006574
21:00−9˚wsw9178799 0.1 1004842
18 january, mon
mon1800:00−9˚sw9168899 0.2 1003927
03:00−10˚wsw81589100 0.3 1005753
06:00−14˚wsw71391100 0.3 1008449
09:00−17˚wsw61294100 0.0 1011333
12:00−17˚w51093100 0.1 1014478
15:00−19˚w379382 0.0 1016316
18:00−23˚w349552 0.0 101835
21:00−25˚wsw23940 0.0 101920
19 january, tue
tue1900:00−25˚sw33965 0.0 101924
03:00−26˚sw23980 0.0 101920
06:00−26˚sw33998 0.0 101933
09:00−26˚sw339914 0.0 101827
12:00−23˚wsw359741 0.0 1019161
15:00−22˚w249636 0.0 1019198
18:00−24˚wnw239564 0.0 102020
21:00−25˚nne339675 0.0 102153
20 january, wed
wed2000:00−25˚ne349683 0.0 102286
03:00−25˚ne369498 0.0 1022139
06:00−25˚ne479099 0.0 1021243
09:00−25˚ene4892100 0.1 1021262
12:00−25˚ne4898100 0.5 1021263
15:00−25˚ne5798100 1.4 1020286
18:00−25˚ne4798100 2.1 1020312
21:00−26˚nne3698100 0.3 1021275